| time (UTC) | temp F | wind direction | speed knots | gust knots | rain 1hr in | rain 24hr in | rain mn in | humidity % | barometer mb |
| 20260510045056 | 71 | 80 | 12.2 | 18.2 | 0.00 | 0.00 | 0.00 | 67 | 1006.2 |
| 20260510044556 | 70 | 71 | 13.0 | 19.1 | 0.00 | 0.00 | 0.00 | 68 | 1006.0 |
| 20260510044055 | 70 | 86 | 10.4 | 20.0 | 0.00 | 0.00 | 0.00 | 67 | 1006.0 |
| 20260510043555 | 70 | 80 | 13.9 | 20.0 | 0.00 | 0.00 | 0.00 | 69 | 1006.0 |
| 20260510043056 | 69 | 71 | 13.9 | 20.0 | 0.00 | 0.00 | 0.00 | 70 | 1006.2 |
| 20260510042558 | 69 | 76 | 13.0 | 17.4 | 0.00 | 0.00 | 0.00 | 70 | 1006.4 |
| 20260510042056 | 69 | 71 | 12.2 | 17.4 | 0.00 | 0.00 | 0.00 | 70 | 1006.5 |
| 20260510041627 | 69 | 56 | 13.0 | 16.5 | 0.00 | 0.00 | 0.00 | 70 | 1006.3 |
| 20260510041054 | 69 | 72 | 11.3 | 18.2 | 0.00 | 0.00 | 0.00 | 69 | 1006.0 |
| 20260510040554 | 69 | 84 | 13.0 | 20.0 | 0.00 | 0.00 | 0.00 | 70 | 1005.8 |
| 20260510040053 | 68 | 57 | 14.8 | 20.0 | 0.00 | 0.00 | 0.00 | 71 | 1006.0 |
| 20260510035552 | 69 | 44 | 13.0 | 19.1 | 0.00 | 0.00 | 0.00 | 67 | 1006.2 |
| 20260510035053 | 70 | 59 | 13.0 | 20.0 | 0.00 | 0.00 | 0.00 | 68 | 1005.9 |
| 20260510034558 | 70 | 106 | 12.2 | 20.9 | 0.00 | 0.00 | 0.00 | 67 | 1004.9 |
| 20260510034057 | 70 | 126 | 15.6 | 20.9 | 0.00 | 0.00 | 0.00 | 67 | 1004.3 |
| 20260510033552 | 70 | 115 | 13.9 | 21.7 | 0.00 | 0.00 | 0.00 | 66 | 1004.0 |
| 20260510033102 | 70 | 138 | 14.8 | 20.9 | 0.00 | 0.00 | 0.00 | 65 | 1003.8 |
| 20260510032551 | 70 | 132 | 13.0 | 17.4 | 0.00 | 0.00 | 0.00 | 64 | 1003.8 |
| 20260510032052 | 71 | 136 | 11.3 | 17.4 | 0.00 | 0.00 | 0.00 | 64 | 1003.9 |
| 20260510031556 | 71 | 130 | 13.0 | 20.9 | 0.00 | 0.00 | 0.00 | 64 | 1003.9 |
| 20260510031053 | 71 | 125 | 16.5 | 20.9 | 0.00 | 0.00 | 0.00 | 64 | 1003.9 |
| 20260510030554 | 71 | 153 | 13.9 | 20.9 | 0.00 | 0.00 | 0.00 | 61 | 1003.6 |
| 20260510030051 | 71 | 144 | 12.2 | 23.5 | 0.00 | 0.00 | 0.00 | 59 | 1003.3 |
| 20260510025550 | 71 | 126 | 17.4 | 26.9 | 0.00 | 0.00 | 0.00 | 60 | 1002.9 |
| 20260510025054 | 71 | 136 | 18.2 | 26.1 | 0.00 | 0.00 | 0.00 | 59 | 1002.5 |
| 20260510024607 | 72 | 123 | 17.4 | 26.1 | 0.00 | 0.00 | 0.00 | 60 | 1002.3 |
| 20260510024053 | 72 | 121 | 19.1 | 27.8 | 0.00 | 0.00 | 0.00 | 60 | 1002.3 |
| 20260510023549 | 73 | 123 | 18.2 | 28.7 | 0.00 | 0.00 | 0.00 | 58 | 1002.2 |
| 20260510023055 | 73 | 114 | 20.9 | 28.7 | 0.00 | 0.00 | 0.00 | 57 | 1001.8 |
| 20260510022549 | 73 | 119 | 18.2 | 26.1 | 0.00 | 0.00 | 0.00 | 54 | 1002.0 |
| 20260510022052 | 73 | 113 | 15.6 | 24.3 | 0.00 | 0.00 | 0.00 | 52 | 1001.9 |
| 20260510021649 | 73 | 130 | 18.2 | 24.3 | 0.00 | 0.00 | 0.00 | 54 | 1001.8 |
| 20260510021048 | 72 | 123 | 14.8 | 22.6 | 0.00 | 0.00 | 0.00 | 61 | 1002.0 |
| 20260510020548 | 72 | 104 | 14.8 | 22.6 | 0.00 | 0.00 | 0.00 | 65 | 1002.2 |
| 20260510020048 | 71 | 111 | 13.0 | 22.6 | 0.00 | 0.00 | 0.00 | 67 | 1002.6 |
| 20260510015548 | 71 | 126 | 13.9 | 20.0 | 0.00 | 0.00 | 0.00 | 69 | 1002.4 |
| 20260510015050 | 70 | 99 | 13.0 | 20.0 | 0.00 | 0.00 | 0.00 | 70 | 1002.4 |
| 20260510014608 | 70 | 106 | 13.9 | 23.5 | 0.00 | 0.00 | 0.00 | 71 | 1002.8 |
| 20260510014050 | 69 | 73 | 17.4 | 24.3 | 0.00 | 0.00 | 0.00 | 73 | 1002.9 |
| 20260510013547 | 69 | 80 | 16.5 | 24.3 | 0.00 | 0.00 | 0.00 | 73 | 1003.3 |
| 20260510013100 | 68 | 67 | 16.5 | 24.3 | 0.00 | 0.00 | 0.00 | 76 | 1003.8 |
| 20260510012550 | 66 | 55 | 19.1 | 24.3 | 0.00 | 0.00 | 0.00 | 77 | 1003.6 |
| 20260510012046 | 64 | 61 | 16.5 | 26.9 | 0.00 | 0.00 | 0.00 | 78 | 1003.5 |
| 20260510011546 | 67 | 51 | 18.2 | 29.5 | 0.00 | 0.00 | 0.00 | 75 | 1003.3 |
| 20260510011048 | 69 | 66 | 20.0 | 36.5 | 0.00 | 0.00 | 0.00 | 74 | 1003.1 |
| 20260510010547 | 71 | 53 | 25.2 | 36.5 | 0.00 | 0.00 | 0.00 | 67 | 1003.2 |
| 20260510010045 | 81 | 39 | 13.0 | 22.6 | 0.00 | 0.00 | 0.00 | 46 | 1003.8 |
| 20260510005545 | 81 | 348 | 5.2 | 8.7 | 0.00 | 0.00 | 0.00 | 47 | 1004.2 |
| 20260510005047 | 82 | 128 | 0.9 | 15.6 | 0.00 | 0.00 | 0.00 | 46 | 1003.8 |
| 20260510004548 | 82 | 134 | 8.7 | 18.2 | 0.00 | 0.00 | 0.00 | 46 | 1002.6 |
| 20260510004044 | 82 | 135 | 13.0 | 20.9 | 0.00 | 0.00 | 0.00 | 46 | 1001.8 |
| 20260510003544 | 82 | 144 | 15.6 | 23.5 | 0.00 | 0.00 | 0.00 | 46 | 1001.3 |
| 20260510003044 | 82 | 148 | 17.4 | 22.6 | 0.00 | 0.00 | 0.00 | 47 | 1000.8 |
| 20260510002543 | 82 | 138 | 14.8 | 18.2 | 0.00 | 0.00 | 0.00 | 47 | 1000.7 |
| 20260510002044 | 82 | 125 | 12.2 | 20.9 | 0.00 | 0.00 | 0.00 | 46 | 1001.0 |
| 20260510001543 | 83 | 102 | 13.9 | 22.6 | 0.00 | 0.00 | 0.00 | 46 | 1001.2 |
| 20260510001042 | 83 | 103 | 14.8 | 22.6 | 0.00 | 0.00 | 0.00 | 46 | 1000.9 |
| 20260510000542 | 83 | 122 | 13.0 | 20.0 | 0.00 | 0.00 | 0.00 | 46 | 1001.1 |
| 20260510000042 | 83 | 127 | 14.8 | 19.1 | 0.00 | 0.00 | 0.00 | 45 | 1001.3 |
| 20260509235541 | 83 | 126 | 13.0 | 18.2 | 0.00 | 0.00 | 0.00 | 44 | 1001.5 |
| 20260509235045 | 84 | 143 | 11.3 | 20.0 | 0.00 | 0.00 | 0.00 | 43 | 1001.6 |
| 20260509234541 | 84 | 113 | 13.9 | 20.0 | 0.00 | 0.00 | 0.00 | 43 | 1001.5 |
| 20260509234041 | 84 | 121 | 12.2 | 18.2 | 0.00 | 0.00 | 0.00 | 43 | 1001.3 |
| 20260509233540 | 84 | 113 | 13.9 | 18.2 | 0.00 | 0.00 | 0.00 | 43 | 1001.3 |
| 20260509233040 | 85 | 131 | 14.8 | 18.2 | 0.00 | 0.00 | 0.00 | 42 | 1001.3 |
| 20260509232539 | 85 | 120 | 13.9 | 20.0 | 0.00 | 0.00 | 0.00 | 42 | 1001.2 |
| 20260509232040 | 85 | 106 | 11.3 | 20.0 | 0.00 | 0.00 | 0.00 | 41 | 1001.3 |
| 20260509231539 | 86 | 109 | 13.0 | 18.2 | 0.00 | 0.00 | 0.00 | 40 | 1001.3 |
| 20260509231041 | 87 | 138 | 12.2 | 19.1 | 0.00 | 0.00 | 0.00 | 41 | 1001.3 |
| 20260509230538 | 86 | 124 | 10.4 | 19.1 | 0.00 | 0.00 | 0.00 | 41 | 1001.3 |
| 20260509230038 | 86 | 111 | 12.2 | 20.0 | 0.00 | 0.00 | 0.00 | 41 | 1001.3 |
| 20260509225540 | 85 | 133 | 13.9 | 20.0 | 0.00 | 0.00 | 0.00 | 42 | 1001.3 |
| 20260509225037 | 85 | 138 | 12.2 | 18.2 | 0.00 | 0.00 | 0.00 | 42 | 1001.4 |
| 20260509224537 | 86 | 123 | 13.9 | 18.2 | 0.00 | 0.00 | 0.00 | 42 | 1001.6 |
| 20260509224037 | 86 | 143 | 7.0 | 19.1 | 0.00 | 0.00 | 0.00 | 41 | 1001.6 |
| 20260509223534 | 87 | 161 | 13.0 | 19.1 | 0.00 | 0.00 | 0.00 | 40 | 1001.8 |
| 20260509223043 | 87 | 165 | 10.4 | 15.6 | 0.00 | 0.00 | 0.00 | 40 | 1001.8 |
| 20260509222537 | 87 | 149 | 9.6 | 15.6 | 0.00 | 0.00 | 0.00 | 41 | 1001.7 |
| 20260509222035 | 87 | 148 | 12.2 | 17.4 | 0.00 | 0.00 | 0.00 | 40 | 1001.9 |
| 20260509221533 | 87 | 145 | 12.2 | 17.4 | 0.00 | 0.00 | 0.00 | 39 | 1001.9 |
| 20260509221032 | 86 | 126 | 10.4 | 15.6 | 0.00 | 0.00 | 0.00 | 41 | 1002.0 |
| 20260509220531 | 87 | 136 | 11.3 | 19.1 | 0.00 | 0.00 | 0.00 | 41 | 1002.2 |
| 20260509220031 | 87 | 136 | 13.9 | 19.1 | 0.00 | 0.00 | 0.00 | 41 | 1002.2 |
| 20260509215530 | 87 | 160 | 10.4 | 17.4 | 0.00 | 0.00 | 0.00 | 39 | 1002.2 |
| 20260509215029 | 87 | 153 | 12.2 | 17.4 | 0.00 | 0.00 | 0.00 | 40 | 1002.3 |
| 20260509214529 | 87 | 148 | 11.3 | 16.5 | 0.00 | 0.00 | 0.00 | 40 | 1002.4 |
| 20260509214028 | 88 | 156 | 9.6 | 16.5 | 0.00 | 0.00 | 0.00 | 39 | 1002.5 |
| 20260509213528 | 88 | 127 | 11.3 | 15.6 | 0.00 | 0.00 | 0.00 | 38 | 1002.5 |
| 20260509213028 | 88 | 177 | 7.0 | 14.8 | 0.00 | 0.00 | 0.00 | 37 | 1002.6 |
| 20260509212526 | 88 | 148 | 8.7 | 14.8 | 0.00 | 0.00 | 0.00 | 38 | 1002.7 |
| 20260509212026 | 88 | 175 | 7.8 | 14.8 | 0.00 | 0.00 | 0.00 | 37 | 1002.7 |
| 20260509211526 | 88 | 146 | 7.8 | 15.6 | 0.00 | 0.00 | 0.00 | 36 | 1002.9 |
| 20260509211027 | 88 | 155 | 8.7 | 15.6 | 0.00 | 0.00 | 0.00 | 35 | 1002.8 |
| 20260509210526 | 88 | 157 | 11.3 | 14.8 | 0.00 | 0.00 | 0.00 | 35 | 1002.9 |
| 20260509210029 | 88 | 166 | 8.7 | 16.5 | 0.00 | 0.00 | 0.00 | 36 | 1002.9 |
| 20260509205523 | 88 | 121 | 11.3 | 15.6 | 0.00 | 0.00 | 0.00 | 34 | 1003.0 |
| 20260509205026 | 88 | 150 | 9.6 | 14.8 | 0.00 | 0.00 | 0.00 | 35 | 1003.0 |
| 20260509204522 | 88 | 153 | 7.8 | 11.3 | 0.00 | 0.00 | 0.00 | 34 | 1003.1 |
| 20260509204021 | 87 | 153 | 5.2 | 15.6 | 0.00 | 0.00 | 0.00 | 35 | 1003.2 |
| 20260509203520 | 88 | 143 | 10.4 | 15.6 | 0.00 | 0.00 | 0.00 | 35 | 1003.2 |
| 20260509203019 | 87 | 160 | 6.1 | 13.9 | 0.00 | 0.00 | 0.00 | 36 | 1003.4 |
| 20260509202519 | 87 | 133 | 7.0 | 13.9 | 0.00 | 0.00 | 0.00 | 36 | 1003.4 |
| 20260509202019 | 88 | 145 | 7.8 | 16.5 | 0.00 | 0.00 | 0.00 | 35 | 1003.4 |
| 20260509201524 | 87 | 159 | 10.4 | 16.5 | 0.00 | 0.00 | 0.00 | 33 | 1003.5 |
| 20260509201016 | 87 | 135 | 5.2 | 13.0 | 0.00 | 0.00 | 0.00 | 35 | 1003.6 |
| 20260509200516 | 87 | 160 | 5.2 | 13.0 | 0.00 | 0.00 | 0.00 | 35 | 1003.8 |
| 20260509200016 | 87 | 152 | 5.2 | 11.3 | 0.00 | 0.00 | 0.00 | 34 | 1003.8 |
| 20260509195514 | 87 | 146 | 4.3 | 10.4 | 0.00 | 0.00 | 0.00 | 34 | 1003.9 |
| 20260509195012 | 86 | 182 | 6.1 | 13.9 | 0.00 | 0.00 | 0.00 | 35 | 1004.0 |
| 20260509194511 | 86 | 146 | 8.7 | 13.9 | 0.00 | 0.00 | 0.00 | 34 | 1004.0 |
| 20260509194013 | 86 | 159 | 7.8 | 12.2 | 0.00 | 0.00 | 0.00 | 34 | 1004.1 |
| 20260509193510 | 86 | 158 | 6.1 | 11.3 | 0.00 | 0.00 | 0.00 | 36 | 1004.1 |
| 20260509193009 | 86 | 143 | 4.3 | 13.0 | 0.00 | 0.00 | 0.00 | 33 | 1004.3 |
| 20260509192509 | 86 | 154 | 7.8 | 13.0 | 0.00 | 0.00 | 0.00 | 35 | 1004.3 |
| 20260509192008 | 86 | 180 | 7.0 | 13.0 | 0.00 | 0.00 | 0.00 | 35 | 1004.3 |
| 20260509191508 | 86 | 138 | 8.7 | 13.0 | 0.00 | 0.00 | 0.00 | 36 | 1004.4 |
| 20260509191006 | 86 | 144 | 3.5 | 13.0 | 0.00 | 0.00 | 0.00 | 36 | 1004.6 |
| 20260509190505 | 85 | 159 | 5.2 | 11.3 | 0.00 | 0.00 | 0.00 | 33 | 1004.7 |
| 20260509190006 | 85 | 163 | 3.5 | 11.3 | 0.00 | 0.00 | 0.00 | 38 | 1004.8 |
| 20260509185504 | 85 | 161 | 7.8 | 13.0 | 0.00 | 0.00 | 0.00 | 34 | 1004.7 |
| 20260509185003 | 84 | 156 | 7.8 | 13.0 | 0.00 | 0.00 | 0.00 | 36 | 1004.8 |
| 20260509184502 | 84 | 130 | 7.0 | 10.4 | 0.00 | 0.00 | 0.00 | 37 | 1004.9 |
| 20260509184001 | 83 | 169 | 4.3 | 12.2 | 0.00 | 0.00 | 0.00 | 40 | 1004.9 |
| 20260509183559 | 83 | 146 | 1.7 | 12.2 | 0.00 | 0.00 | 0.00 | 42 | 1004.9 |
| 20260509183059 | 83 | 146 | 7.0 | 12.2 | 0.00 | 0.00 | 0.00 | 40 | 1005.1 |
| 20260509182557 | 83 | 121 | 7.8 | 13.0 | 0.00 | 0.00 | 0.00 | 41 | 1005.1 |
| 20260509182056 | 83 | 152 | 8.7 | 12.2 | 0.00 | 0.00 | 0.00 | 42 | 1005.2 |
| 20260509181556 | 83 | 142 | 6.1 | 13.9 | 0.00 | 0.00 | 0.00 | 41 | 1005.3 |
| 20260509181054 | 82 | 179 | 3.5 | 13.9 | 0.00 | 0.00 | 0.00 | 45 | 1005.4 |
| 20260509180554 | 82 | 150 | 6.1 | 9.6 | 0.00 | 0.00 | 0.00 | 45 | 1005.6 |
| 20260509180053 | 82 | 116 | 4.3 | 8.7 | 0.00 | 0.00 | 0.00 | 46 | 1005.7 |
| 20260509175552 | 82 | 234 | 3.5 | 13.0 | 0.00 | 0.00 | 0.00 | 47 | 1005.9 |
| 20260509175052 | 82 | 175 | 7.0 | 13.0 | 0.00 | 0.00 | 0.00 | 46 | 1006.0 |
| 20260509174551 | 82 | 134 | 4.3 | 11.3 | 0.00 | 0.00 | 0.00 | 48 | 1006.0 |
| 20260509174152 | 81 | 171 | 3.5 | 11.3 | 0.00 | 0.00 | 0.00 | 48 | 1006.1 |
| 20260509173549 | 81 | 150 | 1.7 | 8.7 | 0.00 | 0.00 | 0.00 | 49 | 1006.2 |
| 20260509173115 | 81 | 180 | 3.5 | 8.7 | 0.00 | 0.00 | 0.00 | 48 | 1006.3 |
| 20260509172548 | 81 | 215 | 2.6 | 8.7 | 0.00 | 0.00 | 0.00 | 50 | 1006.3 |
| 20260509172047 | 81 | 170 | 3.5 | 8.7 | 0.00 | 0.00 | 0.00 | 52 | 1006.4 |
| 20260509171547 | 80 | 202 | 7.0 | 8.7 | 0.00 | 0.00 | 0.00 | 52 | 1006.5 |
| 20260509171047 | 80 | 204 | 3.5 | 8.7 | 0.00 | 0.00 | 0.00 | 52 | 1006.5 |
| 20260509170548 | 80 | 201 | 3.5 | 9.6 | 0.00 | 0.00 | 0.00 | 51 | 1006.5 |
| 20260509170054 | 80 | 175 | 2.6 | 10.4 | 0.00 | 0.00 | 0.00 | 54 | 1006.6 |
| 20260509165542 | 79 | 245 | 4.3 | 10.4 | 0.00 | 0.00 | 0.00 | 54 | 1006.6 |
| 20260509165041 | 79 | 173 | 3.5 | 7.8 | 0.00 | 0.00 | 0.00 | 55 | 1006.7 |
| 20260509164541 | 79 | 203 | 5.2 | 7.8 | 0.00 | 0.00 | 0.00 | 56 | 1006.8 |
| 20260509164040 | 78 | 187 | 0.9 | 8.7 | 0.00 | 0.00 | 0.00 | 56 | 1006.8 |
| 20260509163539 | 78 | 186 | 5.2 | 8.7 | 0.00 | 0.00 | 0.00 | 55 | 1006.9 |
| 20260509163037 | 77 | 146 | 3.5 | 8.7 | 0.00 | 0.00 | 0.00 | 57 | 1007.0 |
| 20260509162540 | 77 | 191 | 5.2 | 7.8 | 0.00 | 0.00 | 0.00 | 58 | 1007.0 |
| 20260509162035 | 77 | 152 | 5.2 | 8.7 | 0.00 | 0.00 | 0.00 | 57 | 1007.0 |
| 20260509161539 | 76 | 167 | 5.2 | 8.7 | 0.00 | 0.00 | 0.00 | 62 | 1007.2 |
| 20260509161033 | 76 | 164 | 3.5 | 8.7 | 0.00 | 0.00 | 0.00 | 62 | 1007.2 |
| 20260509160532 | 76 | 176 | 2.6 | 7.8 | 0.00 | 0.00 | 0.00 | 63 | 1007.3 |
| 20260509160032 | 75 | 157 | 3.5 | 8.7 | 0.00 | 0.00 | 0.00 | 62 | 1007.3 |
| 20260509155529 | 75 | 165 | 3.5 | 7.0 | 0.00 | 0.00 | 0.00 | 64 | 1007.3 |
| 20260509155028 | 75 | 187 | 4.3 | 8.7 | 0.00 | 0.00 | 0.00 | 66 | 1007.3 |
| 20260509154527 | 74 | 196 | 3.5 | 7.8 | 0.00 | 0.00 | 0.00 | 68 | 1007.3 |
| 20260509154027 | 74 | 205 | 3.5 | 7.8 | 0.00 | 0.00 | 0.00 | 68 | 1007.3 |
| 20260509153524 | 74 | 148 | 4.3 | 9.6 | 0.00 | 0.00 | 0.00 | 69 | 1007.4 |
| 20260509153031 | 73 | 192 | 5.2 | 9.6 | 0.00 | 0.00 | 0.00 | 70 | 1007.5 |
| 20260509152522 | 73 | 165 | 5.2 | 8.7 | 0.00 | 0.00 | 0.00 | 71 | 1007.5 |
| 20260509152020 | 73 | 173 | 6.1 | 11.3 | 0.00 | 0.00 | 0.00 | 69 | 1007.5 |
| 20260509151520 | 73 | 163 | 6.1 | 8.7 | 0.00 | 0.00 | 0.00 | 69 | 1007.6 |
| 20260509151023 | 73 | 163 | 5.2 | 8.7 | 0.00 | 0.00 | 0.00 | 70 | 1007.7 |
| 20260509150516 | 72 | 177 | 5.2 | 9.6 | 0.00 | 0.00 | 0.00 | 71 | 1007.6 |
| 20260509150015 | 71 | 161 | 5.2 | 7.8 | 0.00 | 0.00 | 0.00 | 72 | 1007.7 |
| 20260509145514 | 71 | 197 | 4.3 | 8.7 | 0.00 | 0.00 | 0.00 | 74 | 1007.7 |
| 20260509145013 | 70 | 175 | 5.2 | 9.6 | 0.00 | 0.00 | 0.00 | 76 | 1007.8 |
| 20260509144511 | 70 | 166 | 7.0 | 9.6 | 0.00 | 0.00 | 0.00 | 76 | 1007.8 |
| 20260509144009 | 69 | 176 | 5.2 | 8.7 | 0.00 | 0.00 | 0.00 | 78 | 1007.8 |
| 20260509143513 | 69 | 201 | 3.5 | 7.8 | 0.00 | 0.00 | 0.00 | 78 | 1007.8 |
| 20260509143011 | 68 | 171 | 2.6 | 6.1 | 0.00 | 0.00 | 0.00 | 78 | 1007.8 |
| 20260509142504 | 68 | 159 | 2.6 | 6.1 | 0.00 | 0.00 | 0.00 | 77 | 1007.7 |
| 20260509142004 | 67 | 157 | 3.5 | 6.1 | 0.00 | 0.00 | 0.00 | 76 | 1007.6 |
| 20260509141502 | 67 | 190 | 1.7 | 3.5 | 0.00 | 0.00 | 0.00 | 78 | 1007.6 |
| 20260509141002 | 66 | 196 | 0.9 | 2.6 | 0.00 | 0.00 | 0.00 | 78 | 1007.5 |
| 20260509140601 | 65 | 196 | 0.0 | 3.5 | 0.00 | 0.00 | 0.00 | 79 | 1007.5 |
| 20260509140100 | 64 | 194 | 0.9 | 5.2 | 0.00 | 0.00 | 0.00 | 80 | 1007.5 |
| 20260509135556 | 64 | 195 | 0.9 | 4.3 | 0.00 | 0.00 | 0.00 | 82 | 1007.5 |
| 20260509135058 | 63 | 194 | 0.0 | 0.0 | 0.00 | 0.00 | 0.00 | 83 | 1007.4 |
| 20260509134554 | 62 | 194 | 0.0 | 0.0 | 0.00 | 0.00 | 0.00 | 84 | 1007.4 |
| 20260509134057 | 62 | 192 | 0.0 | 0.9 | 0.00 | 0.00 | 0.00 | 85 | 1007.3 |
| 20260509133553 | 61 | 192 | 0.0 | 0.9 | 0.00 | 0.00 | 0.00 | 86 | 1007.2 |
| 20260509133052 | 61 | 192 | 0.0 | 1.7 | 0.00 | 0.00 | 0.00 | 87 | 1007.2 |
| 20260509132552 | 60 | 192 | 0.0 | 2.6 | 0.00 | 0.00 | 0.00 | 87 | 1007.0 |
| 20260509132051 | 60 | 192 | 0.9 | 2.6 | 0.00 | 0.00 | 0.00 | 89 | 1007.1 |
| 20260509131559 | 59 | 185 | 0.9 | 1.7 | 0.00 | 0.00 | 0.00 | 89 | 1007.1 |
| 20260509131050 | 59 | 185 | 0.0 | 2.6 | 0.00 | 0.00 | 0.00 | 90 | 1007.0 |
| 20260509130550 | 58 | 185 | 1.7 | 2.6 | 0.00 | 0.00 | 0.00 | 91 | 1006.9 |
| 20260509130122 | 58 | 182 | 0.0 | 2.6 | 0.00 | 0.00 | 0.00 | 91 | 1006.8 |
| 20260509125550 | 58 | 180 | 0.0 | 2.6 | 0.00 | 0.00 | 0.00 | 92 | 1006.8 |
| 20260509125051 | 58 | 175 | 0.0 | 1.7 | 0.00 | 0.00 | 0.00 | 92 | 1006.8 |
| 20260509124550 | 57 | 174 | 0.0 | 2.6 | 0.00 | 0.00 | 0.00 | 93 | 1006.8 |
| 20260509124050 | 57 | 174 | 0.9 | 1.7 | 0.00 | 0.00 | 0.00 | 93 | 1006.7 |
| 20260509123553 | 57 | 174 | 0.0 | 2.6 | 0.00 | 0.00 | 0.00 | 93 | 1006.6 |
| 20260509123117 | 57 | 174 | 1.7 | 2.6 | 0.00 | 0.00 | 0.00 | 93 | 1006.6 |
| 20260509122548 | 56 | 174 | 1.7 | 3.5 | 0.00 | 0.00 | 0.00 | 93 | 1006.5 |
| 20260509122050 | 56 | 173 | 1.7 | 4.3 | 0.00 | 0.00 | 0.00 | 93 | 1006.4 |
| 20260509121549 | 56 | 173 | 3.5 | 4.3 | 0.00 | 0.00 | 0.00 | 93 | 1006.4 |
| 20260509121049 | 56 | 98 | 0.9 | 2.6 | 0.00 | 0.00 | 0.00 | 93 | 1006.2 |
| 20260509120549 | 56 | 98 | 0.9 | 2.6 | 0.00 | 0.00 | 0.00 | 93 | 1006.2 |
| 20260509120051 | 56 | 98 | 1.7 | 2.6 | 0.00 | 0.00 | 0.00 | 94 | 1006.2 |
| 20260509115548 | 56 | 96 | 0.9 | 3.5 | 0.00 | 0.00 | 0.00 | 94 | 1006.0 |
| 20260509115048 | 56 | 95 | 0.9 | 3.5 | 0.00 | 0.00 | 0.00 | 94 | 1006.0 |
| 20260509114648 | 55 | 95 | 1.7 | 3.5 | 0.00 | 0.00 | 0.00 | 94 | 1006.1 |
| 20260509114048 | 55 | 52 | 1.7 | 3.5 | 0.00 | 0.00 | 0.00 | 93 | 1005.8 |
| 20260509113547 | 56 | 52 | 1.7 | 2.6 | 0.00 | 0.00 | 0.00 | 94 | 1005.8 |
| 20260509113051 | 56 | 52 | 0.0 | 3.5 | 0.00 | 0.00 | 0.00 | 94 | 1005.9 |
| 20260509112553 | 56 | 52 | 1.7 | 4.3 | 0.00 | 0.00 | 0.00 | 94 | 1005.8 |
| 20260509112045 | 56 | 52 | 2.6 | 4.3 | 0.00 | 0.00 | 0.00 | 93 | 1005.7 |
| 20260509111544 | 56 | 53 | 2.6 | 4.3 | 0.00 | 0.00 | 0.00 | 93 | 1005.8 |
| 20260509111044 | 56 | 55 | 1.7 | 3.5 | 0.00 | 0.00 | 0.00 | 94 | 1005.9 |
| 20260509110543 | 56 | 55 | 1.7 | 4.3 | 0.00 | 0.00 | 0.00 | 94 | 1005.8 |
| 20260509110051 | 56 | 50 | 2.6 | 4.3 | 0.00 | 0.00 | 0.00 | 92 | 1005.6 |
| 20260509105543 | 58 | 275 | 0.0 | 0.0 | 0.00 | 0.00 | 0.00 | 93 | 1005.7 |
| 20260509105042 | 58 | 275 | 0.0 | 0.0 | 0.00 | 0.00 | 0.00 | 94 | 1005.8 |
| 20260509104542 | 58 | 275 | 0.0 | 0.0 | 0.00 | 0.00 | 0.00 | 93 | 1005.8 |
| 20260509104045 | 58 | 275 | 0.0 | 0.0 | 0.00 | 0.00 | 0.00 | 93 | 1005.7 |
| 20260509103541 | 58 | 275 | 0.0 | 0.0 | 0.00 | 0.00 | 0.00 | 93 | 1005.7 |
| 20260509103041 | 58 | 275 | 0.0 | 0.0 | 0.00 | 0.00 | 0.00 | 93 | 1005.7 |
| 20260509102540 | 58 | 275 | 0.0 | 0.0 | 0.00 | 0.00 | 0.00 | 92 | 1005.7 |
| 20260509102105 | 58 | 275 | 0.0 | 0.0 | 0.00 | 0.00 | 0.00 | 93 | 1005.8 |
| 20260509101552 | 58 | 275 | 0.0 | 0.0 | 0.00 | 0.00 | 0.00 | 93 | 1005.8 |
| 20260509101040 | 58 | 275 | 0.0 | 0.0 | 0.00 | 0.00 | 0.00 | 93 | 1005.7 |
| 20260509100539 | 58 | 275 | 0.0 | 0.0 | 0.00 | 0.00 | 0.00 | 93 | 1005.9 |
| 20260509100039 | 57 | 275 | 0.0 | 0.0 | 0.00 | 0.00 | 0.00 | 93 | 1005.9 |
| 20260509095539 | 57 | 275 | 0.0 | 0.0 | 0.00 | 0.00 | 0.00 | 92 | 1005.9 |
| 20260509095039 | 57 | 275 | 0.0 | 0.0 | 0.00 | 0.00 | 0.00 | 92 | 1005.8 |
| 20260509094539 | 57 | 275 | 0.0 | 0.0 | 0.00 | 0.00 | 0.00 | 92 | 1005.8 |
| 20260509094038 | 57 | 275 | 0.0 | 0.0 | 0.00 | 0.00 | 0.00 | 91 | 1005.7 |
| 20260509093536 | 58 | 275 | 0.0 | 0.0 | 0.00 | 0.00 | 0.00 | 92 | 1005.8 |
| 20260509093036 | 58 | 275 | 0.0 | 0.0 | 0.00 | 0.00 | 0.00 | 91 | 1005.8 |
| 20260509092535 | 58 | 275 | 0.0 | 0.0 | 0.00 | 0.00 | 0.00 | 92 | 1005.8 |
| 20260509092034 | 58 | 275 | 0.0 | 0.0 | 0.00 | 0.00 | 0.00 | 92 | 1005.8 |
| 20260509091541 | 58 | 275 | 0.0 | 2.6 | 0.00 | 0.00 | 0.00 | 92 | 1006.0 |
| 20260509091035 | 58 | 275 | 0.9 | 3.5 | 0.00 | 0.00 | 0.00 | 91 | 1006.0 |
| 20260509090534 | 59 | 275 | 2.6 | 3.5 | 0.00 | 0.00 | 0.00 | 91 | 1006.0 |
| 20260509090033 | 59 | 275 | 1.7 | 3.5 | 0.00 | 0.00 | 0.00 | 92 | 1006.1 |
| 20260509085532 | 58 | 275 | 1.7 | 3.5 | 0.00 | 0.00 | 0.00 | 92 | 1006.2 |
| 20260509085034 | 58 | 275 | 1.7 | 3.5 | 0.00 | 0.00 | 0.00 | 91 | 1006.2 |
| 20260509084532 | 58 | 275 | 1.7 | 3.5 | 0.00 | 0.00 | 0.00 | 92 | 1006.2 |
| 20260509084032 | 58 | 259 | 1.7 | 2.6 | 0.00 | 0.00 | 0.00 | 91 | 1006.3 |
| 20260509083531 | 58 | 259 | 1.7 | 3.5 | 0.00 | 0.00 | 0.00 | 90 | 1006.3 |
| 20260509083030 | 58 | 259 | 0.9 | 3.5 | 0.00 | 0.00 | 0.00 | 90 | 1006.3 |
| 20260509082630 | 58 | 259 | 1.7 | 3.5 | 0.00 | 0.00 | 0.00 | 90 | 1006.3 |
| 20260509082029 | 58 | 259 | 2.6 | 3.5 | 0.00 | 0.00 | 0.00 | 91 | 1006.4 |
| 20260509081630 | 58 | 259 | 0.9 | 2.6 | 0.00 | 0.00 | 0.00 | 90 | 1006.5 |
| 20260509081028 | 59 | 259 | 0.9 | 2.6 | 0.00 | 0.00 | 0.00 | 89 | 1006.6 |
| 20260509080528 | 59 | 259 | 1.7 | 2.6 | 0.00 | 0.00 | 0.00 | 90 | 1006.5 |
| 20260509080028 | 58 | 259 | 0.0 | 0.9 | 0.00 | 0.00 | 0.00 | 88 | 1006.6 |
| 20260509075528 | 58 | 259 | 0.0 | 1.7 | 0.00 | 0.00 | 0.00 | 88 | 1006.6 |
| 20260509075032 | 59 | 259 | 0.9 | 2.6 | 0.00 | 0.00 | 0.00 | 88 | 1006.7 |
| 20260509074528 | 59 | 259 | 0.9 | 2.6 | 0.00 | 0.00 | 0.00 | 87 | 1006.7 |
| 20260509074028 | 59 | 259 | 0.9 | 1.7 | 0.00 | 0.00 | 0.00 | 88 | 1006.8 |
| 20260509073527 | 59 | 259 | 0.0 | 1.7 | 0.00 | 0.00 | 0.00 | 88 | 1006.9 |
| 20260509073027 | 59 | 259 | 0.9 | 3.5 | 0.00 | 0.00 | 0.00 | 89 | 1006.9 |
| 20260509072528 | 58 | 259 | 1.7 | 3.5 | 0.00 | 0.00 | 0.00 | 87 | 1006.8 |
| 20260509072024 | 59 | 49 | 0.0 | 0.0 | 0.00 | 0.00 | 0.00 | 88 | 1006.8 |
| 20260509071524 | 59 | 49 | 0.0 | 1.7 | 0.00 | 0.00 | 0.00 | 89 | 1006.7 |
| 20260509071023 | 60 | 49 | 0.0 | 2.6 | 0.00 | 0.00 | 0.00 | 89 | 1006.8 |
| 20260509070522 | 60 | 50 | 0.0 | 2.6 | 0.00 | 0.00 | 0.00 | 89 | 1007.0 |
| 20260509070022 | 61 | 50 | 0.0 | 0.0 | 0.00 | 0.00 | 0.00 | 89 | 1007.0 |
| 20260509065521 | 61 | 50 | 0.0 | 0.0 | 0.00 | 0.00 | 0.00 | 90 | 1006.9 |
| 20260509065022 | 61 | 50 | 0.0 | 0.9 | 0.00 | 0.00 | 0.00 | 90 | 1006.9 |
| 20260509064521 | 60 | 50 | 0.0 | 0.9 | 0.00 | 0.00 | 0.00 | 89 | 1006.9 |
| 20260509064023 | 60 | 50 | 0.0 | 2.6 | 0.00 | 0.00 | 0.00 | 89 | 1006.9 |
| 20260509063521 | 60 | 50 | 0.9 | 2.6 | 0.00 | 0.00 | 0.00 | 89 | 1006.8 |
| 20260509063018 | 60 | 50 | 1.7 | 2.6 | 0.00 | 0.00 | 0.00 | 88 | 1006.7 |
| 20260509062520 | 61 | 49 | 1.7 | 4.3 | 0.00 | 0.00 | 0.00 | 88 | 1006.6 |
| 20260509062017 | 61 | 50 | 1.7 | 5.2 | 0.00 | 0.00 | 0.00 | 88 | 1006.5 |
| 20260509061520 | 61 | 38 | 3.5 | 4.3 | 0.00 | 0.00 | 0.00 | 88 | 1006.6 |
| 20260509061015 | 61 | 27 | 2.6 | 3.5 | 0.00 | 0.00 | 0.00 | 88 | 1006.5 |
| 20260509060516 | 61 | 28 | 0.9 | 3.5 | 0.00 | 0.00 | 0.00 | 88 | 1006.4 |
| 20260509060015 | 61 | 28 | 1.7 | 3.5 | 0.00 | 0.00 | 0.00 | 88 | 1006.5 |
| 20260509055515 | 61 | 28 | 1.7 | 4.3 | 0.00 | 0.00 | 0.00 | 88 | 1006.5 |
| 20260509055014 | 61 | 28 | 3.5 | 4.3 | 0.00 | 0.00 | 0.00 | 87 | 1006.6 |
| 20260509054514 | 61 | 29 | 2.6 | 3.5 | 0.00 | 0.00 | 0.00 | 86 | 1006.6 |
| 20260509054018 | 61 | 49 | 1.7 | 3.5 | 0.00 | 0.00 | 0.00 | 86 | 1006.6 |
| 20260509053512 | 62 | 50 | 1.7 | 3.5 | 0.00 | 0.00 | 0.00 | 85 | 1006.6 |
| 20260509053014 | 62 | 49 | 1.7 | 3.5 | 0.00 | 0.00 | 0.00 | 86 | 1006.6 |
| 20260509052512 | 62 | 45 | 0.0 | 3.5 | 0.00 | 0.00 | 0.00 | 85 | 1006.7 |
| 20260509052009 | 62 | 44 | 0.9 | 4.3 | 0.00 | 0.00 | 0.00 | 85 | 1006.7 |
| 20260509051509 | 62 | 44 | 2.6 | 4.3 | 0.00 | 0.00 | 0.00 | 85 | 1006.6 |
| 20260509051007 | 62 | 95 | 2.6 | 5.2 | 0.00 | 0.00 | 0.00 | 84 | 1006.4 |
| 20260509050508 | 63 | 96 | 1.7 | 3.5 | 0.00 | 0.00 | 0.00 | 84 | 1006.2 |
| 20260509050015 | 63 | 96 | 2.6 | 3.5 | 0.00 | 0.00 | 0.00 | 84 | 1006.2 |
| 20260509045503 | 63 | 96 | 1.7 | 3.5 | 0.00 | 0.00 | 0.00 | 83 | 1006.2 |